Hourly Weather Homutiha

Today, 13 April, Tuesday

Time Temperature Precipitation Wind Pressure Humidity
00:00 +8°C° 0 mm 3 mps 755 mmHg 82%
01:00 +8°C° 0 mm 2 mps 754 mmHg 85%
02:00 +7°C° 0 mm 2 mps 754 mmHg 89%
03:00 +7°C° 0 mm 2 mps 754 mmHg 91%
04:00 +7°C° 0 mm 2 mps 753 mmHg 93%
05:00 +7°C° 0 mm 2 mps 753 mmHg 95%
06:00 +8°C° 0 mm 2 mps 753 mmHg 90%
07:00 +9°C° 0 mm 2 mps 752 mmHg 86%
08:00 +12°C° 0 mm 2 mps 752 mmHg 81%
09:00 +12°C° 0 mm 3 mps 752 mmHg 75%
10:00 +14°C° 0 mm 3 mps 752 mmHg 68%
11:00 +16°C° 0 mm 3 mps 752 mmHg 62%
12:00 +18°C° 0 mm 3 mps 752 mmHg 58%
13:00 +19°C° 0 mm 4 mps 751 mmHg 54%
14:00 +20°C° 0 mm 4 mps 751 mmHg 50%
15:00 +19°C° 0 mm 3 mps 751 mmHg 53%
16:00 +19°C° 0 mm 3 mps 751 mmHg 56%
17:00 +18°C° 0 mm 2 mps 750 mmHg 60%
18:00 +16°C° 0 mm 2 mps 751 mmHg 65%
19:00 +15°C° 0 mm 2 mps 751 mmHg 71%
20:00 +13°C° 0 mm 2 mps 751 mmHg 77%
21:00 +12°C° 0 mm 3 mps 750 mmHg 76%
22:00 +11°C° 0 mm 3 mps 750 mmHg 75%
23:00 +11°C° 0 mm 3 mps 750 mmHg 74%

Tomorrow, 14 April, Wednesday

Time Temperature Precipitation Wind Pressure Humidity
00:00 +10°C° 0 mm 2 mps 750 mmHg 76%
01:00 +10°C° 0 mm 2 mps 750 mmHg 77%
02:00 +10°C° 0 mm 2 mps 750 mmHg 79%
03:00 +9°C° 0 mm 2 mps 749 mmHg 80%
04:00 +9°C° 0 mm 2 mps 749 mmHg 82%
05:00 +8°C° 0 mm 2 mps 749 mmHg 83%
06:00 +10°C° 0 mm 2 mps 749 mmHg 77%
07:00 +11°C° 0 mm 3 mps 749 mmHg 71%
08:00 +12°C° 0 mm 3 mps 749 mmHg 65%
09:00 +14°C° 0 mm 3 mps 749 mmHg 61%
10:00 +15°C° 0 mm 4 mps 749 mmHg 57%
11:00 +18°C° 0 mm 4 mps 749 mmHg 54%
12:00 +18°C° 0.1 mm 4 mps 748 mmHg 53%
13:00 +18°C° 0.1 mm 4 mps 748 mmHg 52%
14:00 +19°C° 0.1 mm 4 mps 748 mmHg 51%
15:00 +18°C° 0.2 mm 3 mps 748 mmHg 56%
16:00 +17°C° 0.2 mm 2 mps 748 mmHg 62%
17:00 +16°C° 0.2 mm 1 mps 748 mmHg 67%
18:00 +15°C° 0.3 mm 2 mps 748 mmHg 74%
19:00 +14°C° 0.3 mm 2 mps 749 mmHg 80%
20:00 +13°C° 0.3 mm 2 mps 749 mmHg 87%
21:00 +12°C° 0.1 mm 2 mps 749 mmHg 89%
22:00 +12°C° 0.1 mm 2 mps 749 mmHg 92%
23:00 +10°C° 0.1 mm 2 mps 749 mmHg 94%

Day after tomorrow, 15 April, Thursday

Time Temperature Precipitation Wind Pressure Humidity
00:00 +9°C° 0.1 mm 3 mps 749 mmHg 95%
01:00 +9°C° 0.1 mm 3 mps 749 mmHg 96%
02:00 +8°C° 0.1 mm 3 mps 749 mmHg 96%
03:00 +8°C° 0 mm 3 mps 749 mmHg 95%
04:00 +8°C° 0 mm 3 mps 749 mmHg 94%
05:00 +8°C° 0 mm 3 mps 750 mmHg 93%
06:00 +8°C° 0.1 mm 3 mps 750 mmHg 92%
07:00 +8°C° 0.1 mm 3 mps 750 mmHg 90%
08:00 +8°C° 0.1 mm 3 mps 750 mmHg 89%
09:00 +7°C° 0 mm 4 mps 750 mmHg 87%
10:00 +7°C° 0 mm 4 mps 751 mmHg 86%
11:00 +8°C° 0 mm 4 mps 751 mmHg 84%
12:00 +7°C° 0 mm 4 mps 751 mmHg 84%
13:00 +7°C° 0 mm 4 mps 751 mmHg 83%
14:00 +7°C° 0 mm 4 mps 751 mmHg 83%
15:00 +7°C° 0 mm 4 mps 751 mmHg 83%
16:00 +7°C° 0 mm 4 mps 752 mmHg 83%
17:00 +6°C° 0 mm 4 mps 752 mmHg 83%
18:00 +6°C° 0 mm 4 mps 752 mmHg 84%
19:00 +5°C° 0 mm 4 mps 752 mmHg 85%
20:00 +5°C° 0 mm 4 mps 752 mmHg 86%
21:00 +5°C° 0 mm 4 mps 752 mmHg 87%
22:00 +5°C° 0 mm 4 mps 752 mmHg 88%
23:00 +4°C° 0 mm 4 mps 752 mmHg 88%

16 April, Friday

Time Temperature Precipitation Wind Pressure Humidity
00:00 +4°C° 0 mm 4 mps 753 mmHg 88%
01:00 +3°C° 0 mm 4 mps 753 mmHg 87%
02:00 +3°C° 0 mm 4 mps 753 mmHg 86%
03:00 +1°C° 0 mm 4 mps 753 mmHg 85%
04:00 +1°C° 0 mm 4 mps 753 mmHg 85%
05:00 0°C° 0 mm 4 mps 753 mmHg 84%
06:00 +1°C° 0 mm 4 mps 753 mmHg 78%
07:00 +3°C° 0 mm 4 mps 754 mmHg 73%
08:00 +3°C° 0 mm 5 mps 754 mmHg 67%
09:00 +6°C° 0 mm 5 mps 754 mmHg 60%
10:00 +7°C° 0 mm 5 mps 754 mmHg 54%
11:00 +8°C° 0 mm 5 mps 754 mmHg 47%
12:00 +8°C° 0 mm 5 mps 755 mmHg 44%
13:00 +9°C° 0 mm 5 mps 755 mmHg 40%
14:00 +9°C° 0 mm 5 mps 755 mmHg 37%
15:00 +9°C° 0 mm 5 mps 755 mmHg 40%
16:00 +8°C° 0 mm 5 mps 755 mmHg 43%
17:00 +8°C° 0 mm 4 mps 755 mmHg 46%
18:00 +7°C° 0 mm 4 mps 756 mmHg 51%
19:00 +5°C° 0 mm 4 mps 756 mmHg 56%
20:00 +4°C° 0 mm 3 mps 756 mmHg 62%
21:00 +3°C° 0 mm 3 mps 757 mmHg 64%
22:00 +3°C° 0 mm 3 mps 757 mmHg 66%
23:00 +2°C° 0 mm 3 mps 757 mmHg 69%

17 April, Saturday

Time Temperature Precipitation Wind Pressure Humidity
00:00 +2°C° 0 mm 3 mps 757 mmHg 71%
01:00 +1°C° 0 mm 3 mps 758 mmHg 74%
02:00 +1°C° 0 mm 3 mps 758 mmHg 76%
03:00 0°C° 0 mm 3 mps 758 mmHg 77%
04:00 0°C° 0 mm 3 mps 759 mmHg 78%
05:00 0°C° 0 mm 3 mps 759 mmHg 79%
06:00 +1°C° 0 mm 3 mps 759 mmHg 72%
07:00 +3°C° 0 mm 3 mps 759 mmHg 65%
08:00 +5°C° 0 mm 4 mps 760 mmHg 57%
09:00 +6°C° 0 mm 4 mps 760 mmHg 54%
10:00 +7°C° 0 mm 4 mps 760 mmHg 51%
11:00 +8°C° 0 mm 5 mps 760 mmHg 48%
12:00 +8°C° 0 mm 4 mps 760 mmHg 45%
13:00 +8°C° 0 mm 4 mps 760 mmHg 42%
14:00 +10°C° 0 mm 4 mps 760 mmHg 39%
15:00 +8°C° 0 mm 4 mps 760 mmHg 41%
16:00 +8°C° 0 mm 4 mps 760 mmHg 42%
17:00 +8°C° 0 mm 3 mps 760 mmHg 44%
18:00 +7°C° 0 mm 3 mps 760 mmHg 50%
19:00 +4°C° 0 mm 3 mps 761 mmHg 55%
20:00 +4°C° 0 mm 2 mps 761 mmHg 61%
21:00 +3°C° 0 mm 2 mps 761 mmHg 63%
22:00 +2°C° 0 mm 2 mps 761 mmHg 65%
23:00 +2°C° 0 mm 2 mps 761 mmHg 68%

18 April, Sunday

Time Temperature Precipitation Wind Pressure Humidity
00:00 +2°C° 0 mm 2 mps 762 mmHg 69%
01:00 +2°C° 0 mm 1 mps 762 mmHg 70%
02:00 +2°C° 0 mm 1 mps 762 mmHg 71%
03:00 +2°C° 0 mm 1 mps 762 mmHg 71%
04:00 +2°C° 0 mm 1 mps 762 mmHg 71%
05:00 +2°C° 0 mm 1 mps 762 mmHg 71%
06:00 +4°C° 0 mm 1 mps 762 mmHg 63%
07:00 +6°C° 0 mm 1 mps 762 mmHg 56%
08:00 +8°C° 0 mm 1 mps 762 mmHg 48%
09:00 +9°C° 0 mm 1 mps 762 mmHg 44%
10:00 +10°C° 0 mm 1 mps 762 mmHg 40%
11:00 +12°C° 0 mm 1 mps 762 mmHg 36%
12:00 +12°C° 0 mm 1 mps 762 mmHg 35%
13:00 +12°C° 0 mm 0 mps 762 mmHg 34%
14:00 +13°C° 0 mm 0 mps 761 mmHg 34%
15:00 +12°C° 0 mm 0 mps 761 mmHg 35%
16:00 +12°C° 0 mm 0 mps 761 mmHg 37%
17:00 +12°C° 0 mm 0 mps 761 mmHg 39%
18:00 +10°C° 0 mm 0 mps 761 mmHg 44%
19:00 +8°C° 0 mm 0 mps 761 mmHg 50%
20:00 +6°C° 0 mm 0 mps 761 mmHg 55%
21:00 +6°C° 0 mm 0 mps 761 mmHg 57%
22:00 +5°C° 0 mm 0 mps 761 mmHg 59%
23:00 +5°C° 0 mm 0 mps 761 mmHg 61%
Show more